Flag for Canada Weather past 2 weeks in Strathcona County, Alberta, Canada

Now
21 °F

Passing clouds.


Feels Like: 16 °F
Forecast: 17 / 27 °F
Wind: 3 mph from West

Location: Edmonton Municipal

Current Time: Dec 19, 2014 at 10:31:06 PM

Latest Report: Dec 19, 2014 at 10:00 PM


Visibility: 5 mi

Pressure: 29.80 "Hg

Humidity: 86%

Dew point: 18 °F

Location of Strathcona CountyLocation

Historic Weather in Strathcona County — Graph

°F

Strathcona County temperature yesterday

Maximum temperature yesterday: 25 °F (at 2:00 PM)
Minimum temperature yesterday: 12 °F (at 10:00 PM)
Average temperature yesterday: 18 °F

Past Weeks' High & Low Weather Summary

 TemperatureHumidityPressure
High52 °F (Dec 9, 9:00 PM)100% (Dec 8, 12:00 AM)30.43 "Hg (Dec 8, 12:00 AM)
Low5 °F (Dec 8, 12:00 AM)47% (Dec 9, 9:00 PM)29.21 "Hg (Dec 11, 5:00 AM)
Average24 °F81%29.95 "Hg
* Reported Dec 4 9:00 PM — Dec 19 9:00 PM, Strathcona County, Weather by CustomWeather, © 2014

Note: Actual official high and low records may vary slightly from our data, if they occured in-between our weather recording intervals... More about our weather records

Advertising

Strathcona County weather history for previous 24 hours

 ConditionsComfort  
Time TempWeatherWind HumidityBarometerVisibility
9:00 PM
Dec 19
21 °FPassing clouds.2 mph86%29.82 "Hg6 mi
8:00 PM23 °FOvercast.5 mph80%29.80 "Hg6 mi
7:00 PM25 °FOvercast.12 mph86%29.80 "Hg7 mi
6:00 PM23 °FOvercast.3 mph80%29.82 "Hg7 mi
5:00 PM23 °FOvercast.2 mph80%29.80 "Hg8 mi
4:00 PM27 °FOvercast.3 mph80%29.78 "Hg9 mi
3:00 PM27 °FSunny.6 mph74%29.77 "Hg9 mi
2:00 PM27 °FSunny.6 mph74%29.76 "Hg9 mi
1:00 PM27 °FSunny.5 mph74%29.77 "Hg9 mi
12:00 PM25 °FSunny.9 mph80%29.78 "Hg9 mi
11:00 AM25 °FSunny.10 mph80%29.80 "Hg9 mi
10:00 AM18 °FSunny.No wind86%29.81 "Hg8 mi
9:00 AM10 °FSunny.3 mph85%29.83 "Hg5 mi
8:00 AM10 °FClear.2 mph85%29.85 "Hg6 mi
7:00 AM10 °FClear.2 mph85%29.85 "Hg6 mi
6:00 AM10 °FClear.3 mph85%29.86 "Hg5 mi
5:00 AM10 °FClear.2 mph85%29.87 "Hg5 mi
4:00 AM10 °FClear.2 mph85%29.88 "Hg5 mi
3:00 AM12 °FClear.No wind85%29.90 "Hg4 mi
2:00 AM12 °FClear.No wind92%29.90 "Hg4 mi
1:00 AM9 °FClear.3 mph85%29.92 "Hg4 mi
12:00 AM10 °FClear.5 mph92%29.93 "Hg4 mi
11:00 PM
Dec 18
12 °FClear.5 mph85%29.96 "Hg3 mi
10:00 PM12 °FClear.2 mph92%29.96 "Hg4 mi
Weather by CustomWeather, © 2014

See weather overviewHow to use our weather pages